Regional Weather Roundup
Issued by NWS

Home | Current Version | Previous Version | Text Only | Print | Product List | Glossary Off
Versions: 1 2 3 4 5 6 7 8 9 10 11 12 13 14 15 16 17 18 19 20 21 22 23 24 25 26 27 28 29 30 31 32 33 34 35 36 37 38 39 40 41 42 43 44 45 46 47 48 49 50

000
ASUS45 KBOU 030107
RWRCO

WEATHER ROUNDUP FOR COLORADO
NATIONAL WEATHER SERVICE DENVER/BOULDER CO
600 PM MST FRI DEC 02 2016

NOTE: "FAIR" INDICATES FEW OR NO CLOUDS BELOW 12000 FEET WITH NO
SIGNIFICANT WEATHER AND/OR OBSTRUCTIONS TO VISIBILITY.

COZ001>005-013-030-031-030200-
...NORTHWEST COLORADO...

CITY           SKY/WX    TMP DP  RH WIND       PRES   REMARKS
CRAIG          CLOUDY    23  15  71 W7        30.17R WCI  15
HAYDEN         MOCLDY    19  12  73 W7        30.14S WCI  10
MEEKER         CLOUDY    22  15  75 NE8       30.15R WCI  12
MOUNT WERNER   NOT AVBL
STEAMBOAT SPGS CLOUDY    19  16  89 CALM      30.13S
WALDEN           N/A     14  10  85 N7        30.08R WCI   4
$$

COZ006>008-011-030200-
...WEST CENTRAL VALLEYS...

CITY           SKY/WX    TMP DP  RH WIND       PRES   REMARKS
GRAND JUNCTION CLOUDY    35  18  49 NE12      30.13R WCI  27
MONTROSE       FLURRIES  30  22  72 NW5       30.14R WCI  25
EAGLE          CLOUDY    28  23  80 CALM      30.11R
RIFLE          CLOUDY    31  20  63 NW9       30.14R WCI  23
DELTA          CLOUDY    36  24  61 NE6       30.13R
NUCLA          CLOUDY    32  27  80 NW6       30.13R WCI  26
$$

COZ017>023-064>068-030200-
...SOUTHWEST COLORADO...

CITY           SKY/WX    TMP DP  RH WIND       PRES   REMARKS
DURANGO        CLOUDY    32  26  78 NE7       30.03R WCI  26
CORTEZ         CLOUDY    32  24  72 CALM      30.03R
PAGOSA SPRINGS TSTM      30  29  96 CALM      30.04R
TELLURIDE      LGT SNOW  22  18  85 W5        30.05R WCI  15
WOLF CREEK PAS LGT SNOW  14  12  92 CALM      30.06R VSB 3/4
$$

COZ009-010-012-014-032>034-037-058>063-030200-
...CENTRAL COLORADO...

CITY           SKY/WX    TMP DP  RH WIND       PRES   REMARKS
ASPEN          LGT SNOW  23  21  92 N3        30.05R FOG
BUENA VISTA    LGT SNOW  19  16  90 CALM      30.11R
COPPER MTN     NOT AVBL
BERTHOUD PASS  FAIR       5  -8  56 SW12      29.97S WCI -11
COTTONWOOD PAS LGT SNOW  19  14  79 CALM      30.05S
GUNNISON       FAIR      25  18  74 CALM      30.04R
KREMMLING      LGT SNOW  27  23  86 CALM      30.09R
LEADVILLE      LGT SNOW  11   8  88 CALM      30.03R FOG
MONARCH PASS     N/A     10   9  92 SE3       30.11R
SALIDA         CLOUDY    23  21  91 CALM      30.19S
SUNLIGHT       LGT SNOW N/A N/A N/A W6        30.06R
WILKERSON PASS CLOUDY    10   7  85 SW5       30.05S WCI   2
$$

COZ069>075-030200-
...SAN LUIS VALLEY/SANGRE DE CRISTO MOUNTAINS...

CITY           SKY/WX    TMP DP  RH WIND       PRES   REMARKS
ALAMOSA        CLOUDY    22  20  92 NW5       30.07R WCI  16
LA VETA PASS   FOG       16  12  86 SW10      30.05R VSB 1/2 WCI   3
SAGUACHE       CLOUDY    25  23  93 CALM      30.07S
$$

COZ035-036-038>040-030200-
...NORTHERN COLORADO FRONT RANGE...

CITY           SKY/WX    TMP DP  RH WIND       PRES   REMARKS
DENVER INTL AP CLOUDY    27  22  81 E5        30.15S WCI  22
DMNS CITY PARK   N/A     30  22  69 E8        30.17R WCI  23
AURORA         PTCLDY    26  21  82 E5        30.16R WCI  20
FRONT RANGE AP CLOUDY    30  25  80 SE5       30.16S WCI  25
ERIE MUNI ARPT CLOUDY    31  26  84 N3        30.17S
BOULDER MUN AP FLURRIES  30  28  93 CALM      30.16S
CENTENNIAL     FAIR      27  22  81 CALM      30.14S
BROOMFIELD     MOCLDY    28  27  93 NE5       30.16S WCI  23
FORT COLLINS   MOCLDY    25  19  80 CALM      30.18S
LONGMONT       CLOUDY    31  28  86 CALM      30.19S
$$

COZ041-046-047-076>085-087-088-030200-
...PIKES PEAK/PALMER DIVIDE AND SOUTHERN FOOTHILLS...

CITY           SKY/WX    TMP DP  RH WIND       PRES   REMARKS
COLO. SPRINGS  MOCLDY    25  18  74 S3        30.16R
A. F. ACADEMY  CLOUDY    23  19  86 CALM      30.15R
SCHRIEVER AFB  NOT AVBL
ELLICOTT       CLOUDY   N/A N/A N/A S3        30.15R
FALCON         FLURRIES  22  20  92 CALM      30.15R
FORT CARSON    MOCLDY    26  18  70 SW3       30.15S
LIMON          FAIR      20  16  84 SE3       30.18S
MONUMENT HILL  FAIR      18  14  86 S7        30.14S WCI   8
TRINIDAD       CLOUDY    30  22  72 SE10      30.15R WCI  21
$$

COZ042>045-048>051-090-091-030200-
...NORTHEAST COLORADO...

CITY           SKY/WX    TMP DP  RH WIND       PRES   REMARKS
GREELEY ARPT   CLOUDY    29  22  75 NE5       30.19S WCI  24
AKRON          CLOUDY    30  17  58 S6        30.20R WCI  24
BURLINGTON     CLOUDY    37  19  48 E5        30.22R
WRAY           NOT AVBL
STERLING       FAIR      30  21  69 CALM      30.20S
HOLYOKE        FAIR      34  21  60 CALM      30.23R
FORT MORGAN    FAIR      28  18  66 E6        30.20S WCI  21
$$

COZ086-089-092>099-030200-
...SOUTHEAST COLORADO...

CITY           SKY/WX    TMP DP  RH WIND       PRES   REMARKS
PUEBLO         CLOUDY    32  18  56 CALM      30.19R
LA JUNTA       MOCLDY    34  14  43 E5        30.19R WCI  30
LAMAR          MIX PCPN  34  16  47 CALM      30.19R
SPRINGFIELD      N/A     35  12  38 NE5       30.18R WCI  31
$$



USA.gov is the U.S. government's official web portal to all federal, state and local government web resources and services.